Portada
METAR-TAF:

METAR-TAF

Aeropuertos :

Aeropuerto de Eastmain River

Eastmain, Quebec, Canadá

latitud: 52-14N, longitud: 078-31W, altitud: 7 m

Observación

El informe se hizo hace 11 horas y 19 minutos, a las 21:00 UTC
Viento 10 kt del noroeste con ráfagas de 16 kt
Temperatura -12°C
Humedad 72%
Presión 1014 hPa
Visibilidad: 24.1 km
Escasas nubes a una altura de 2000 ft
Escasas nubes a una altura de 16000 ft

METAR: CZEM 212100Z 32010G16KT 15SM FEW020 FEW160 M12/M16 A2993 RMK SC1AC1 AC TR LAST STFD OBS/NEXT 221400 UTC SLP136

Hora: 03:19 (08:19 UTC)


TAF: falta

Observaciones y pronósticos meteorológicos de más de 4000 aeropuertos (mensajes METAR y TAF).

Los puntos amarillos y rojos representan las estaciones disponibles.

Ponga el ratón en el punto deseado para ver el nombre de la estación.

Haga clic para ver las observaciones y los pronósticos meteorológicos.

Para cambiar el mapa : haga clic en los botones verdes con una cruz de color negro para hacer un zoom, en el botón verde con un guión para alejar o en las flechas verdes para mapas adyacentes.


METAR-TAF: